STARLINK-1297 (45395 NORAD) Tracking and Keplerian Element Data

This shows tracking and keplerian element data for the satellite.

Feedback or suggestion? Click here.




ElementValue
Catalog45395
NameSTARLINK-1297
Epoch Orbit1147
Epoch Day149.16667824
Epoch Year2020
RAAN269.1051
Inclination52.9965
Eccentricity0.0002926
Argument of Perigee104.0171
Mean Anonmoly354.573
Mean Motion15.41972649
Decay Rate0.03599351
L11 45395U 20019AM 20149.16667824 .03599351 00000-0 73148-1 0 9993
L22 45395 52.9965 269.1051 0002926 104.0171 354.5730 15.41972649 11479

Live tracking and technical data element details for STARLINK-1297 (NORAD 45395). STARLINK-1297 can be tracked NOW for your location showing map with azimuth and elevation plus other details from your city location.

Track the satellite on the map from your city or location and see movement details for azimuth, elevation, latitude, longitude, range, height, and movement on the map or in text.







IsCatalogInMostPopularTable: catalog: 45395, numindb: 16
Update: records affected: 1



GetName: 45395 STARLINK-1297

Hit Count: updated at: Sat, 30 May 2020 16:03:22 GMT